Meteopurmerend
purmerend
Purmerend - Baaienwijk



My webcam  My webcam


waarschuwing voor Onweer Meer informatie blitzortung!


Regen radar Meer informatie rain snow radar


Bezoek onze andere website:

CandyAppleRed WebdesignWebdesign Purmerend Candy Apple Red

MeteopurmerendBlog

Template documentation
and downloads



Onweer van: 19-06-2019 10:00 tot: 23:00 waarschuwing voor: Onweer niveau: Geel info button
Enkele onweersbuien, mogelijk met hagel en windstoten tot ca. 75 km/uur.Verkeer en buitenactiviteiten kunnen hinder ondervinden.Mijd open water en open gebied, schuil niet onder bomen.Volg weerberichten en waarschuwingen.

15 daagse weersverwachting Navan (IE)

  • Overzicht
  • Per uur
  • 15 dagen
  • Extra
  • Vergelijk
  • Kaarten
  • Dagkaart
  • Meer »
  • Info
  • Statistieken
  • Directe link
    Temp 6h Neerslag Wind  
 04:58     22:00    Daglengte: 17:02 Vandaag
13:00
16°
 
5
19:00
15°
1.3 mm
6
 04:58     22:00    Daglengte: 17:02 Morgen
01:00
10°
 
5
07:00
 
4
13:00
15°
 
5
19:00
14°
3.4 mm
4
 04:58     22:00    Daglengte: 17:02 Vrijdag 21 Jun
01:00
 
3
07:00
 
3
13:00
15°
 
3
19:00
16°
 
2
 04:58     22:00    Daglengte: 17:02 Zaterdag 22 Jun
01:00
11°
 
3
07:00
12°
 
2
Locatie info
Region: Leinster
Latitude: 53.6528°N
Longitude: -6.6814°E
35 masl
Temp/Neerslag /Baro Onweer/Dauwpunt
    Temp Baro 1h Neerslag Dauwpunt Wind UV Bewolking  
 04:58     22:00    Daglengte: 17:02 Vandaag
13:00
16°
1008.2 hPa
65%
8.6°
5
Windvlaag: 1.2 m/s
60%
14:00
15°
1008.0 hPa 0.3 mm
69%
8.8°
5
Windvlaag: 1.2 m/s
66%
15:00
16°
1007.6 hPa
80%
9.6°
5
Windvlaag: 2.6 m/s
45%
16:00
16°
1007.3 hPa 0.7 mm
78%
9.6°
6
Windvlaag: 1.8 m/s
71%
17:00
15°
1007.2 hPa 0.3 mm
72%
9.4°
6
Windvlaag: 1.3 m/s
64%
18:00
15°
1007.2 hPa
67%
9.3°
6
Windvlaag: 1.2 m/s
62%
19:00
15°
1007.4 hPa
33%
9.1°
6
Windvlaag: 1.7 m/s
73%
20:00
14°
1007.6 hPa
18%
8.6°
5
Windvlaag: 1.3 m/s
66%
21:00
13°
1008.1 hPa
14%
8.4°
5
Windvlaag: 0.8 m/s
76%
22:00
12°
1008.3 hPa
17%
8.0°
5
Windvlaag: 1.9 m/s
72%
23:00
11°
1008.6 hPa
22%
8.0°
5
Windvlaag: 1.7 m/s
65%
 04:58     22:00    Daglengte: 17:02 Morgen
00:00
11°
1008.7 hPa
21%
7.6°
5
Windvlaag: 1.7 m/s
56%
01:00
10°
1009.1 hPa
35%
7.2°
5
Windvlaag: 1.5 m/s
46%
02:00
10°
Voelt als: 7.4°
1009.0 hPa
62%
7.1°
4
Windvlaag: 1.5 m/s
54%
03:00
Voelt als: 7.2°
1009.2 hPa
14%
7.0°
4
Windvlaag: 2.2 m/s
51%
04:00
Voelt als: 6.8°
1009.4 hPa
14%
7.1°
4
Windvlaag: 2.1 m/s
35%
05:00
Voelt als: 6.3°
1009.6 hPa
14%
6.9°
4
Windvlaag: 2 m/s
18%
06:00
Voelt als: 6.3°
1009.9 hPa
14%
6.8°
4
Windvlaag: 1.7 m/s
26%
07:00
Voelt als: 7.3°
1010.1 hPa
14%
7.0°
4
Windvlaag: 1.4 m/s
15%
08:00
11°
1010.3 hPa
14%
6.8°
5
Windvlaag: 1.2 m/s
26%
09:00
12°
1010.6 hPa
14%
6.0°
5
Windvlaag: 0.7 m/s
9%
10:00
13°
1010.8 hPa
14%
5.6°
5
Windvlaag: 0.6 m/s
18%
11:00
14°
1011.0 hPa
23%
5.2°
5
Windvlaag: 0.9 m/s
34%
12:00
14°
1011.3 hPa
79%
5.1°
5
Windvlaag: 1.8 m/s
16%
13:00
15°
1011.5 hPa
82%
5.4°
5
Windvlaag: 2.3 m/s
14%
14:00
15°
1011.6 hPa 0.3 mm
82%
5.3°
5
Windvlaag: 2.3 m/s
41%
15:00
14°
1011.9 hPa 1.1 mm
82%
5.4°
5
Windvlaag: 0.6 m/s
54%
16:00
15°
1011.9 hPa 0.9 mm
82%
5.5°
5
Windvlaag: -0 m/s
28%
17:00
15°
1012.0 hPa 1.1 mm
82%
6.2°
5
Windvlaag: 2.4 m/s
42%
18:00
14°
1012.2 hPa
81%
7.3°
5
Windvlaag: 1.7 m/s
38%
19:00
14°
1012.6 hPa
38%
7.1°
4
Windvlaag: 0.4 m/s
31%
20:00
13°
1013.1 hPa
31%
8.4°
4
Windvlaag: -0.2 m/s
35%
21:00
12°
1013.6 hPa
25%
8.2°
4
Windvlaag: 0 m/s
12%
22:00
11°
1014.3 hPa
23%
8.0°
3
Windvlaag: 0.6 m/s
13%
23:00
11°
1014.9 hPa
17%
7.8°
3
Windvlaag: 0.7 m/s
6%
 04:58     22:00    Daglengte: 17:02 Vrijdag 21 Jun
00:00
10°
Voelt als: 8.6°
1015.4 hPa
17%
7.6°
3
Windvlaag: 0.8 m/s
9%
01:00
Voelt als: 7.8°
1015.8 hPa
14%
7.1°
3
Windvlaag: 1 m/s
5%
02:00
Voelt als: 6.9°
1016.0 hPa
14%
6.3°
3
Windvlaag: 1 m/s
5%
03:00
Voelt als: 6.3°
1016.4 hPa
14%
5.9°
3
Windvlaag: 1.3 m/s
6%
04:00
Voelt als: 5.0°
1016.5 hPa
21%
5.9°
3
Windvlaag: 1.4 m/s
21%
05:00
Voelt als: 4.8°
1016.9 hPa
21%
6.0°
3
Windvlaag: 1.3 m/s
18%
06:00
Voelt als: 5.3°
1017.4 hPa
21%
6.1°
3
Windvlaag: 1.3 m/s
12%
07:00
Voelt als: 6.9°
1017.9 hPa
21%
6.9°
3
Windvlaag: 1.3 m/s
7%
08:00
10°
1018.4 hPa
21%
7.6°
3
Windvlaag: 1.1 m/s
4%
09:00
12°
1018.8 hPa
21%
7.2°
4
Windvlaag: 0.7 m/s
15%
10:00
13°
1019.0 hPa
21%
6.3°
3
Windvlaag: 0.7 m/s
21%
11:00
14°
1019.2 hPa
21%
5.9°
3
Windvlaag: 0.8 m/s
24%
12:00
15°
1019.5 hPa
21%
5.6°
3
Windvlaag: 0.8 m/s
67%
13:00
15°
1019.6 hPa
21%
5.4°
3
Windvlaag: 1.3 m/s
47%
14:00
16°
1019.5 hPa
21%
5.3°
3
Windvlaag: 1.7 m/s
85%
15:00
16°
1019.6 hPa
21%
5.4°
3
Windvlaag: 1.7 m/s
85%
16:00
16°
1019.6 hPa
21%
6.1°
2
Windvlaag: 1.8 m/s
85%
17:00
16°
1019.5 hPa
21%
8.0°
3
Windvlaag: 1.7 m/s
83%
18:00
16°
1019.5 hPa
21%
9.4°
3
Windvlaag: 1.5 m/s
41%
19:00
16°
1019.6 hPa
21%
10.1°
2
Windvlaag: 1 m/s
37%
20:00
15°
1019.7 hPa
21%
10.1°
2
Windvlaag: 1.6 m/s
37%
21:00
14°
1019.8 hPa
21%
9.0°
3
Windvlaag: 1.5 m/s
45%
22:00
13°
1020.2 hPa
21%
9.3°
3
Windvlaag: 1.7 m/s
46%
23:00
12°
1020.5 hPa
21%
9.1°
3
Windvlaag: 2 m/s
40%
 04:58     22:00    Daglengte: 17:02 Zaterdag 22 Jun
00:00
12°
1020.6 hPa
21%
9.1°
3
Windvlaag: 2.2 m/s
45%
01:00
11°
1020.5 hPa
21%
9.1°
3
Windvlaag: 1.8 m/s
52%
02:00
12°
1020.4 hPa
23%
9.8°
3
Windvlaag: 0.6 m/s
91%
03:00
11°
1020.2 hPa
23%
9.8°
2
Windvlaag: 0.7 m/s
92%
04:00
11°
1020.0 hPa
21%
9.7°
2
Windvlaag: 0.6 m/s
69%
05:00
11°
1020.0 hPa
22%
9.9°
3
Windvlaag: 0.6 m/s
58%
06:00
11°
1020.2 hPa
21%
10.1°
3
Windvlaag: 0.5 m/s
56%
07:00
12°
1020.2 hPa
22%
10.2°
2
Windvlaag: 0.5 m/s
43%
08:00
13°
1020.2 hPa
21%
10.3°
3
Windvlaag: 2.5 m/s
40%
09:00
13°
1020.2 hPa
21%
10.2°
3
Windvlaag: 2.8 m/s
39%
10:00
14°
1020.2 hPa
21%
10.0°
3
Windvlaag: 3.2 m/s
58%
11:00
15°
1020.0 hPa
22%
9.9°
3
Windvlaag: 4.6 m/s
56%
12:00
16°
1020.0 hPa
23%
9.5°
3
Windvlaag: 3.7 m/s
75%
Temp/Neerslag /Baro Onweer/Dauwpunt
    Temp Baro Neerslag Dauwpunt Wind Bewolking  
 04:58     22:00    Daglengte: 17:02 Vandaag
13:00
16°
1008.2 hPa   8.6°
5
60%
16:00
16°
1007.3 hPa 1.0 mm 9.6°
6
71%
19:00
15°
1007.4 hPa 0.3 mm 9.1°
6
73%
22:00
12°
1008.3 hPa   8.0°
5
72%
 04:58     22:00    Daglengte: 17:02 Morgen
01:00
10°
1009.1 hPa   7.2°
5
46%
04:00
Voelt als: 6.8°
1009.4 hPa   7.1°
4
35%
07:00
Voelt als: 7.3°
1010.1 hPa   7.0°
4
15%
10:00
13°
1010.8 hPa   5.6°
5
18%
13:00
15°
1011.5 hPa   5.4°
5
14%
16:00
15°
1011.9 hPa 2.3 mm 5.5°
5
28%
19:00
14°
1012.6 hPa 1.1 mm 7.1°
4
31%
22:00
11°
1014.3 hPa   8.0°
3
13%
 04:58     22:00    Daglengte: 17:02 Vrijdag 21 Jun
01:00
Voelt als: 7.8°
1015.8 hPa   7.1°
3
5%
04:00
Voelt als: 5.0°
1016.5 hPa   5.9°
3
21%
07:00
Voelt als: 6.9°
1017.9 hPa   6.9°
3
7%
10:00
13°
1019.0 hPa   6.3°
3
21%
13:00
15°
1019.6 hPa   5.4°
3
47%
16:00
16°
1019.6 hPa   6.1°
2
85%
19:00
16°
1019.6 hPa   10.1°
2
37%
22:00
13°
1020.2 hPa   9.3°
3
46%
 04:58     22:00    Daglengte: 17:02 Zaterdag 22 Jun
01:00
11°
1020.5 hPa   9.1°
3
52%
04:00
11°
1020.0 hPa   9.7°
2
69%
07:00
12°
1020.2 hPa   10.2°
2
43%
10:00
14°
1020.2 hPa   10.0°
3
58%
13:00
17°
1019.9 hPa   8.8°
3
79%
16:00
18°
1019.8 hPa 7.4 mm 9.4°
3
85%
19:00
18°
1019.4 hPa 8.6 mm 9.8°
3
91%
22:00
15°
1019.9 hPa 8.8 mm 9.3°
3
91%
 04:59     22:01    Daglengte: 17:02 Zondag 23 Jun
01:00
12°
1020.2 hPa 8.8 mm 8.4°
3
92%
04:00
13°
1019.7 hPa 8.8 mm 9.2°
3
91%
07:00
14°
1019.3 hPa 8.9 mm 10.3°
4
91%
10:00
16°
1019.6 hPa 10.0 mm 10.3°
4
91%
13:00
18°
1019.9 hPa 10.5 mm 9.8°
5
92%
16:00
17°
1019.4 hPa 10.7 mm 11.0°
4
92%
19:00
16°
1019.0 hPa 10.7 mm 12.0°
4
92%
22:00
16°
1018.6 hPa 10.8 mm 12.6°
4
92%
 04:59     22:01    Daglengte: 17:02 Maandag 24 Jun
01:00
15°
1018.0 hPa 12.4 mm 13.6°
5
92%
04:00
14°
1016.8 hPa 21.9 mm 13.4°
5
92%
07:00
14°
1015.6 hPa 27.4 mm 13.2°
5
92%
10:00
15°
1015.5 hPa 30.1 mm 13.9°
5
92%
13:00
17°
1015.4 hPa 30.1 mm 14.7°
4
92%
16:00
18°
1015.6 hPa 30.5 mm 15.5°
4
60%
19:00
19°
1015.9 hPa 32.0 mm 16.2°
3
29%
22:00
16°
1017.5 hPa 32.7 mm 14.4°
3
14%
 05:00     22:01    Daglengte: 17:01 Dinsdag 25 Jun
01:00
13°
1019.1 hPa 32.7 mm 12.6°
2
0%
04:00
13°
1019.5 hPa 32.7 mm 12.3°
2
44%
07:00
13°
1020.0 hPa 32.7 mm 12.2°
1
89%
10:00
17°
1020.2 hPa 32.7 mm 13.6°
1
75%
13:00
21°
1020.4 hPa 32.8 mm 14.5°
2
62%
16:00
20°
1020.3 hPa 32.9 mm 15.2°
2
76%
19:00
19°
1020.2 hPa 32.9 mm 15.8°
3
90%
22:00
17°
1020.7 hPa 32.9 mm 15.1°
2
91%
 05:00     22:01    Daglengte: 17:01 Woensdag 26 Jun
01:00
14°
1021.1 hPa 32.9 mm 14.3°
1
91%
04:00
16°
1020.4 hPa 32.9 mm 15.0°
2
91%
07:00
17°
1019.7 hPa 32.9 mm 15.9°
3
92%
10:00
18°
1019.4 hPa   16.0°
4
92%
13:00
20°
1019.1 hPa 65.9 mm 16.0°
4
92%
19:00
21°
1016.8 hPa 66.4 mm 17.3°
4
30%
 05:01     22:00    Daglengte: 16:59 Donderdag 27 Jun
01:00
17°
1016.3 hPa 66.6 mm 15.8°
1
60%
07:00
17°
1015.3 hPa 67.5 mm 16.9°
2
52%
13:00
21°
1015.0 hPa 74.6 mm 18.5°
2
79%
19:00
19°
1012.3 hPa 86.3 mm 17.3°
2
87%
 05:01     22:00    Daglengte: 16:59 Vrijdag 28 Jun
01:00
15°
1012.9 hPa 87.8 mm 14.8°
2
59%
07:00
15°
1012.4 hPa 88.0 mm 13.9°
4
29%
13:00
20°
1013.1 hPa 90.1 mm 13.4°
3
34%
19:00
20°
1012.1 hPa 90.8 mm 12.6°
3
44%
 05:02     22:00    Daglengte: 16:58 Zaterdag 29 Jun
01:00
15°
1013.2 hPa 91.7 mm 13.3°
3
47%
07:00
12°
1013.7 hPa 0.2 mm 10.3°
1
44%
13:00
16°
1013.2 hPa 0.8 mm 12.1°
2
53%
19:00
16°
1012.2 hPa 0.9 mm 12.4°
1
50%
 05:03     22:00    Daglengte: 16:57 Zondag 30 Jun
01:00
11°
1012.9 hPa 0.2 mm 9.6°
1
34%
07:00
11°
1012.7 hPa   10.2°
1
35%
13:00
16°
1013.3 hPa 0.2 mm 11.5°
1
48%
19:00
17°
1013.5 hPa 0.6 mm 12.3°
1
49%
 05:03     21:59    Daglengte: 16:56 Maandag 01 Jul
01:00
11°
1014.8 hPa 0.7 mm 9.2°
2
40%
07:00
11°
1015.2 hPa   9.6°
1
37%
13:00
17°
1015.7 hPa 0.3 mm 11.1°
1
44%
19:00
16°
1015.5 hPa 1.1 mm 12.1°
1
51%
 05:04     21:59    Daglengte: 16:55 Dinsdag 02 Jul
01:00
11°
1016.1 hPa 0.3 mm 9.4°
1
36%
07:00
11°
1015.8 hPa 0.4 mm 10.0°
1
41%
13:00
16°
1016.1 hPa 1.3 mm 11.5°
1
56%
19:00
17°
1015.7 hPa 1.3 mm 12.8°
1
61%
 05:05     21:58    Daglengte: 16:53 Woensdag 03 Jul
01:00
11°
1016.3 hPa 0.5 mm 9.9°
1
52%
07:00
12°
1015.9 hPa 0.7 mm 10.7°
1
54%
13:00
16°
1016.3 hPa 0.7 mm 12.3°
1
57%
19:00
17°
1016.0 hPa 1.9 mm 13.0°
2
61%
 05:06     21:58    Daglengte: 16:52 Donderdag 04 Jul
01:00
11°
1016.9 hPa 0.9 mm 9.8°
2
43%
07:00
11°
1017.0 hPa 0.3 mm 10.3°
2
43%
  CAPE Lifted Index Hail Supercell Tornado SRH 3km CL BTM PRES CL TOP PRES Swiss DWD icon SMHI TS
 04:58     22:00    Daglengte: 17:02 Vandaag
13:00 136 J/kg 2.2 K 0 % 0 % 0 % 0 m²/s² 0 0 4.42 3
14:00 120 J/kg 2.3 K 0 % 0 % 0 % 0 m²/s² 0 0 2.84 3
15:00 214 J/kg 1.1 K 0 % 0 % 0 % 0 m²/s² 0 0 2.15 3
16:00 181 J/kg 1.7 K 0 % 0 % 0 % 0 m²/s² 0 0 2.6 3
17:00 128 J/kg 2.3 K 0 % 0 % 0 % 0 m²/s² 0 0 3.11 2
18:00 131 J/kg 1.9 K 0 % 0 % 0 % 0 m²/s² 0 0 2.8 3
19:00 110 J/kg 2.3 K 0 % 0 % 0 % 0 m²/s² 0 0 2.78 3
20:00 132 J/kg 2.6 K 0 % 0 % 0 % 0 m²/s² 0 0 2.93 3
21:00 117 J/kg 3.2 K 0 % 0 % 0 % 0 m²/s² 0 0 3.77 3
22:00 0 J/kg 5.5 K 0 % 0 % 0 % 0 m²/s² 0 0 7.27 3
23:00 56 J/kg 4.9 K 0 % 0 % 0 % 0 m²/s² 0 0 9.25 3
 04:58     22:00    Daglengte: 17:02 Morgen
00:00 21 J/kg 6.2 K 0 % 0 % 0 % 0 m²/s² 0 0 11.39 3
01:00 26 J/kg 6.6 K 0 % 0 % 0 % 0 m²/s² 0 0 11.91 3
02:00 19 J/kg 7.1 K 0 % 0 % 0 % 0 m²/s² 0 0 12.56 3
03:00 6 J/kg 6.9 K 0 % 0 % 0 % 0 m²/s² 0 0 12.33 2
04:00 0 J/kg 6.7 K 0 % 0 % 0 % 0 m²/s² 0 0 11.86 3
05:00 0 J/kg 6.4 K 0 % 0 % 0 % 0 m²/s² 0 0 11.29 3
06:00 0 J/kg 5.8 K 0 % 0 % 0 % 0 m²/s² 0 0 8.68 3
07:00 15 J/kg 6.1 K 0 % 0 % 0 % 0 m²/s² 0 0 8.35 3
08:00 85 J/kg 5.0 K 0 % 0 % 0 % 0 m²/s² 0 0 7.82 3
09:00 68 J/kg 5.3 K 0 % 0 % 0 % 0 m²/s² 0 0 8.12 2
10:00 54 J/kg 5.4 K 0 % 0 % 0 % 0 m²/s² 0 0 8.22 1
11:00 72 J/kg 5.0 K 0 % 0 % 0 % 0 m²/s² 0 0 7.67 2
12:00 119 J/kg 4.3 K 0 % 0 % 0 % 0 m²/s² 0 0 6.94 1
13:00 184 J/kg 3.4 K 0 % 0 % 0 % 0 m²/s² 0 0 5.56 1
14:00 189 J/kg 3.2 K 0 % 0 % 0 % 0 m²/s² 0 0 4.49 1
15:00 0 J/kg 5.5 K 0 % 0 % 0 % 0 m²/s² 0 0 6.07 2
16:00 135 J/kg 3.5 K 0 % 0 % 0 % 0 m²/s² 0 0 4.91 80
17:00 230 J/kg 2.3 K 0 % 0 % 0 % 0 m²/s² 0 0 5.06 2
18:00 167 J/kg 3.1 K 0 % 0 % 0 % 0 m²/s² 0 0 7 1
19:00 157 J/kg 3.5 K 0 % 0 % 0 % 0 m²/s² 0 0 6.5 1
20:00 133 J/kg 4.1 K 0 % 0 % 0 % 0 m²/s² 0 0 5.87 2
21:00 73 J/kg 5.2 K 0 % 0 % 0 % 0 m²/s² 0 0 9.22 1
22:00 52 J/kg 6.2 K 0 % 0 % 0 % 0 m²/s² 0 0 10.43 1
23:00 55 J/kg 6.5 K 0 % 0 % 0 % 0 m²/s² 0 0 9.95 2
 04:58     22:00    Daglengte: 17:02 Vrijdag 21 Jun
00:00 23 J/kg 8.0 K 0 % 0 % 0 % 0 m²/s² 0 0 11.45 1
01:00 18 J/kg 8.3 K 0 % 0 % 0 % 0 m²/s² 0 0 11.42 2
02:00 1 J/kg 9.4 K 0 % 0 % 0 % 0 m²/s² 0 0 12.28 1
03:00 0 J/kg 10.3 K 0 % 0 % 0 % 0 m²/s² 0 0 12.94 1
04:00 0 J/kg 10.7 K 0 % 0 % 0 % 0 m²/s² 0 0 13.28 1
05:00 0 J/kg 10.6 K 0 % 0 % 0 % 0 m²/s² 0 0 12.97 2
06:00 0 J/kg 10.4 K 0 % 0 % 0 % 0 m²/s² 0 0 12.68 2
07:00 0 J/kg 10.7 K 0 % 0 % 0 % 0 m²/s² 0 0 12.98 1
08:00 23 J/kg 9.5 K 0 % 0 % 0 % 0 m²/s² 0 0 11.78 0
09:00 23 J/kg 10.0 K 0 % 0 % 0 % 0 m²/s² 0 0 12.37 2
10:00 29 J/kg 9.7 K 0 % 0 % 0 % 0 m²/s² 0 0 12.07 2
11:00 46 J/kg 9.1 K 0 % 0 % 0 % 0 m²/s² 0 0 11.53 2
12:00 47 J/kg 8.9 K 0 % 0 % 0 % 0 m²/s² 0 0 11.36 3
13:00 59 J/kg 8.4 K 0 % 0 % 0 % 0 m²/s² 0 0 10.71 2
14:00 64 J/kg 8.0 K 0 % 0 % 0 % 0 m²/s² 0 0 10.25 3
15:00 61 J/kg 7.8 K 0 % 0 % 0 % 0 m²/s² 0 0 10.05 3
16:00 61 J/kg 7.6 K 0 % 0 % 0 % 0 m²/s² 0 0 9.7 3
17:00 54 J/kg 7.5 K 0 % 0 % 0 % 0 m²/s² 0 0 9.75 3
18:00 52 J/kg 7.1 K 0 % 0 % 0 % 0 m²/s² 0 0 9.65 3
19:00 64 J/kg 6.4 K 0 % 0 % 0 % 0 m²/s² 0 0 8.95 2
20:00 59 J/kg 6.2 K 0 % 0 % 0 % 0 m²/s² 0 0 9.14 2
21:00 70 J/kg 5.8 K 0 % 0 % 0 % 0 m²/s² 0 0 8.5 1
22:00 51 J/kg 5.6 K 0 % 0 % 0 % 0 m²/s² 0 0 8 3
23:00 29 J/kg 5.7 K 0 % 0 % 0 % 0 m²/s² 0 0 8.31 1
 04:58     22:00    Daglengte: 17:02 Zaterdag 22 Jun
00:00 64 J/kg 4.5 K 0 % 0 % 0 % 0 m²/s² 0 0 7.35 1
01:00 74 J/kg 4.7 K 0 % 0 % 0 % 0 m²/s² 0 0 7.4 1
02:00 19 J/kg 4.7 K 0 % 0 % 0 % 0 m²/s² 0 0 7.25 3
03:00 5 J/kg 4.7 K 0 % 0 % 0 % 0 m²/s² 0 0 7.46 3
04:00 0 J/kg 4.9 K 0 % 0 % 0 % 0 m²/s² 0 0 7.51 3
05:00 0 J/kg 5.3 K 0 % 0 % 0 % 0 m²/s² 0 0 8.3 3
06:00 2 J/kg 5.1 K 0 % 0 % 0 % 0 m²/s² 0 0 8.34 3
07:00 3 J/kg 5.3 K 0 % 0 % 0 % 0 m²/s² 0 0 9.11 3
08:00 5 J/kg 5.6 K 0 % 0 % 0 % 0 m²/s² 0 0 9.32 3
09:00 4 J/kg 6.0 K 0 % 0 % 0 % 0 m²/s² 0 0 10.32 2
10:00 6 J/kg 7.2 K 0 % 0 % 0 % 0 m²/s² 0 0 11.52 3
11:00 13 J/kg 7.3 K 0 % 0 % 0 % 0 m²/s² 0 0 10.15 2
12:00 69 J/kg 6.0 K 0 % 0 % 0 % 0 m²/s² 0 0 8.94 3
Temp Baro Wind Neerslag
  EWN Forecast EWN WRFDA DWD ICON FMI HIRLAM MET Norway GFS
 04:58     22:00    Daglengte: 17:02 Vandaag
13:00 15.8° 1008.2 hPa 5.3 m/s 0.0 mm 16.1° 1006.9 hPa 4.0 m/s 0.1 mm 15.1° 1008.2 hPa 6.2 m/s -2.0 mm 16.5° 1008.2 hPa 5.4 m/s 0.0 mm 15.9° 1008.3 hPa 4.8 m/s 0.4 mm 14.4° 1008.3 hPa 4.9 m/s
16:00 15.7° 1007.3 hPa 5.6 m/s 1.0 mm 16.7° 1005.7 hPa 6.4 m/s 1.3 mm 15.6° 1007.9 hPa 6.5 m/s 0.1 mm 16.1° 1007.9 hPa 5.3 m/s 0.0 mm 15.3° 1007.4 hPa 4.3 m/s 0.8 mm 14.7° 1007.6 hPa 5.0 m/s
19:00 14.7° 1007.4 hPa 5.8 m/s 0.3 mm 14.6° 1006.1 hPa 6.7 m/s 1.6 mm 14.6° 1007.3 hPa 6.8 m/s 0.0 mm 15.1° 1008.2 hPa 5.2 m/s 0.0 mm 14.5° 1007.4 hPa 4.6 m/s 0.3 mm 13.5° 1007.5 hPa 5.0 m/s
22:00 11.9° 1008.3 hPa 4.5 m/s 0.0 mm 10.0° 1006.8 hPa 4.2 m/s 1.9 mm 12.4° 1008.1 hPa 5.1 m/s 0.0 mm 13.1° 1009.5 hPa 4.6 m/s 0.0 mm 11.9° 1008.3 hPa 3.8 m/s 0.0 mm 10.1° 1008.6 hPa 3.2 m/s
 04:58     22:00    Daglengte: 17:02 Morgen
01:00 10.3° 1009.1 hPa 4.5 m/s 0.0 mm 7.7° 1007.7 hPa 3.4 m/s 2.1 mm 10.7° 1009.1 hPa 4.7 m/s 0.0 mm 12.0° 1009.8 hPa 4.9 m/s 0.0 mm 10.3° 1008.9 hPa 3.7 m/s 0.0 mm 7.4° 1009.3 hPa 3.8 m/s
04:00 8.9° 1009.4 hPa 3.8 m/s 0.0 mm 7.1° 1007.9 hPa 3.4 m/s 2.1 mm 9.0° 1008.6 hPa 3.6 m/s 0.0 mm 11.1° 1010.2 hPa 4.3 m/s 0.0 mm 8.4° 1009.5 hPa 3.7 m/s 0.0 mm 5.9° 1009.5 hPa 3.7 m/s
07:00 9.4° 1010.1 hPa 4.1 m/s 0.0 mm 9.3° 1008.5 hPa 4.3 m/s 2.2 mm 9.8° 1009.8 hPa 5.0 m/s 0.0 mm 11.5° 1011.2 hPa 3.7 m/s 0.0 mm 9.1° 1010.1 hPa 3.5 m/s 0.0 mm 7.2° 1010.3 hPa 4.0 m/s
10:00 12.6° 1010.8 hPa 4.9 m/s 0.0 mm 12.8° 1009.2 hPa 4.6 m/s 2.4 mm 12.4° 1010.7 hPa 5.6 m/s 0.0 mm 14.0° 1012.1 hPa 4.8 m/s 0.0 mm 12.5° 1010.7 hPa 4.3 m/s 0.0 mm 11.8° 1011.2 hPa 4.2 m/s
13:00 15.1° 1011.5 hPa 4.9 m/s 0.0 mm 14.9° 1009.9 hPa 3.9 m/s 2.4 mm 15.0° 1011.0 hPa 5.4 m/s 0.1 mm 16.5° 1012.7 hPa 4.9 m/s 0.0 mm 14.5° 1011.5 hPa 4.4 m/s 0.0 mm 14.2° 1011.8 hPa 4.6 m/s
16:00 14.7° 1011.9 hPa 4.6 m/s 2.3 mm 14.4° 1009.9 hPa 6.5 m/s 8.1 mm 14.8° 1011.2 hPa 6.0 m/s 0.6 mm 15.1° 1013.8 hPa 3.7 m/s 0.0 mm 14.9° 1011.8 hPa 4.2 m/s 0.0 mm 13.5° 1012.1 hPa 5.3 m/s
19:00 13.7° 1012.6 hPa 4.4 m/s 1.1 mm 14.3° 1010.6 hPa 6.6 m/s 11.1 mm 13.8° 1012.1 hPa 6.4 m/s 0.2 mm 15.1° 1014.5 hPa 3.1 m/s 0.0 mm 13.5° 1012.5 hPa 3.7 m/s 0.0 mm 12.3° 1012.7 hPa 5.0 m/s
22:00 11.3° 1014.3 hPa 2.9 m/s 0.0 mm 10.7° 1012.2 hPa 3.1 m/s 11.3 mm 11.1° 1013.3 hPa 3.0 m/s 0.0 mm 14.2° 1015.9 hPa 1.7 m/s 0.0 mm 10.9° 1014.3 hPa 2.5 m/s 0.3 mm 9.2° 1014.2 hPa 3.0 m/s
 04:58     22:00    Daglengte: 17:02 Vrijdag 21 Jun
01:00 9.2° 1015.8 hPa 2.7 m/s 0.0 mm 8.7° 1014.0 hPa 3.1 m/s 11.5 mm 9.5° 1015.1 hPa 3.4 m/s 0.0 mm 13.4° 1017.1 hPa 1.3 m/s 0.0 mm 8.8° 1015.8 hPa 2.8 m/s 0.0 mm 6.1° 1015.7 hPa 2.7 m/s
04:00 7.1° 1016.5 hPa 2.9 m/s 0.0 mm 3.6° 1014.6 hPa 3.2 m/s 11.5 mm 7.8° 1016.2 hPa 3.0 m/s 0.0 mm 7.4° 1016.7 hPa 3.0 m/s 0.0 mm 4.7° 1016.7 hPa 3.2 m/s
07:00 8.6° 1017.9 hPa 2.9 m/s 0.0 mm 8.3° 1015.5 hPa 3.4 m/s 11.5 mm 8.8° 1017.4 hPa 3.4 m/s 0.0 mm 8.7° 1018.2 hPa 2.9 m/s 0.0 mm 6.2° 1017.6 hPa 3.2 m/s
10:00 12.9° 1019.0 hPa 3.5 m/s 0.0 mm 12.9° 1016.5 hPa 3.1 m/s 11.5 mm 12.9° 1019.1 hPa 4.3 m/s 0.0 mm 13.1° 1019.1 hPa 3.6 m/s 0.0 mm 11.6° 1018.7 hPa 3.1 m/s
13:00 15.3° 1019.6 hPa 2.8 m/s 0.0 mm 14.6° 1017.3 hPa 2.5 m/s 11.5 mm 15.7° 1019.2 hPa 4.1 m/s 0.0 mm 15.3° 1019.8 hPa 2.8 m/s 0.0 mm 13.3° 1019.4 hPa 3.1 m/s
16:00 16.2° 1019.6 hPa 2.4 m/s 0.0 mm 16.2° 1017.1 hPa 2.0 m/s 11.5 mm 16.1° 1019.3 hPa 2.8 m/s 0.0 mm 16.1° 1019.8 hPa 2.5 m/s 0.0 mm 14.4° 1019.4 hPa 2.4 m/s
19:00 16.2° 1019.6 hPa 1.5 m/s 0.0 mm 16.7° 1016.9 hPa 1.3 m/s 11.5 mm 16.6° 1019.0 hPa 1.5 m/s 0.0 mm 14.3° 1020.0 hPa 2.1 m/s 0.0 mm 14.7° 1019.1 hPa 1.1 m/s
22:00 13.3° 1020.2 hPa 2.8 m/s 0.0 mm 14.0° 1017.5 hPa 2.1 m/s 11.5 mm 12.9° 1019.3 hPa 3.3 m/s 0.0 mm 13.4° 1020.6 hPa 2.6 m/s 0.0 mm 10.5° 1020.1 hPa 2.1 m/s
 04:58     22:00    Daglengte: 17:02 Zaterdag 22 Jun
01:00 11.1° 1020.5 hPa 2.7 m/s 0.0 mm 8.7° 1017.6 hPa 3.0 m/s 11.5 mm 11.1° 1019.9 hPa 4.1 m/s 0.0 mm 12.1° 1021.2 hPa 2.3 m/s 0.0 mm 9.8° 1020.1 hPa 1.7 m/s
04:00 11.0° 1020.0 hPa 2.4 m/s 0.0 mm 9.9° 1017.5 hPa 2.4 m/s 11.5 mm 10.8° 1019.7 hPa 2.9 m/s 0.0 mm 11.3° 1020.7 hPa 2.2 m/s 0.0 mm 10.2° 1019.6 hPa 2.2 m/s
07:00 11.6° 1020.2 hPa 2.5 m/s 0.0 mm 11.5° 1017.7 hPa 1.6 m/s 11.8 mm 12.0° 1020.0 hPa 2.8 m/s 0.0 mm 11.6° 1020.9 hPa 2.5 m/s 0.0 mm 9.8° 1019.7 hPa 2.8 m/s
10:00 14.4° 1020.2 hPa 2.8 m/s 0.0 mm 13.1° 1018.3 hPa 1.8 m/s 12.4 mm 14.8° 1020.0 hPa 4.7 m/s 0.0 mm 14.4° 1020.8 hPa 2.5 m/s 13.9° 1020.1 hPa 3.2 m/s
13:00 17.1° 1019.9 hPa 2.6 m/s 0.0 mm 16.5° 1018.3 hPa 2.2 m/s 12.5 mm 16.9° 1019.4 hPa 3.1 m/s 0.0 mm 17.3° 1020.6 hPa 2.5 m/s 16.8° 1020.0 hPa 3.0 m/s
16:00 17.7° 1019.8 hPa 2.8 m/s 7.4 mm 17.8° 1019.8 hPa 2.8 m/s 17.2° 1019.7 hPa 2.8 m/s 7.4 mm
19:00 17.8° 1019.4 hPa 2.9 m/s 8.6 mm 18.0° 1019.4 hPa 3.0 m/s 15.6° 1019.6 hPa 1.6 m/s 8.6 mm
22:00 14.8° 1019.9 hPa 2.8 m/s 8.8 mm 15.1° 1019.8 hPa 2.9 m/s 12.6° 1020.5 hPa 1.3 m/s 8.8 mm
 04:59     22:01    Daglengte: 17:02 Zondag 23 Jun
01:00 12.0° 1020.2 hPa 2.7 m/s 8.8 mm 12.1° 1020.2 hPa 2.8 m/s 11.0° 1019.9 hPa 1.7 m/s 8.8 mm
04:00 12.8° 1019.7 hPa 3.3 m/s 8.8 mm 13.1° 1019.8 hPa 3.3 m/s 9.6° 1019.3 hPa 2.5 m/s 8.8 mm
07:00 13.9° 1019.3 hPa 3.9 m/s 8.9 mm 14.1° 1019.3 hPa 3.9 m/s 11.4° 1019.2 hPa 3.9 m/s 8.9 mm
10:00 16.1° 1019.6 hPa 4.4 m/s 10.0 mm 16.2° 1019.6 hPa 4.4 m/s 13.9° 1019.6 hPa 4.9 m/s 10.0 mm
13:00 18.3° 1019.9 hPa 4.9 m/s 10.5 mm 18.4° 1019.9 hPa 4.9 m/s 17.3° 1019.4 hPa 5.5 m/s 10.5 mm
16:00 17.4° 1019.4 hPa 4.3 m/s 10.7 mm 17.4° 1019.5 hPa 4.2 m/s 17.0° 1018.3 hPa 5.2 m/s 10.7 mm
19:00 16.4° 1019.0 hPa 3.6 m/s 10.7 mm 16.5° 1019.1 hPa 3.5 m/s 15.0° 1017.7 hPa 4.7 m/s 10.7 mm
22:00 15.5° 1018.6 hPa 4.2 m/s 10.8 mm 15.8° 1018.6 hPa 4.2 m/s 13.3° 1018.8 hPa 4.3 m/s 10.8 mm
 04:59     22:01    Daglengte: 17:02 Maandag 24 Jun
01:00 14.9° 1018.0 hPa 5.0 m/s 12.4 mm 15.0° 1018.1 hPa 4.8 m/s 13.4° 1017.1 hPa 6.7 m/s 12.4 mm
04:00 14.2° 1016.8 hPa 4.9 m/s 21.9 mm 14.4° 1017.0 hPa 4.7 m/s 12.0° 1015.0 hPa 7.0 m/s 21.9 mm
07:00 13.7° 1015.6 hPa 4.8 m/s 27.4 mm 13.9° 1015.8 hPa 4.6 m/s 11.7° 1013.7 hPa 6.6 m/s 27.4 mm
10:00 15.3° 1015.5 hPa 4.6 m/s 30.1 mm 15.6° 1015.6 hPa 4.6 m/s 12.4° 1013.6 hPa 4.0 m/s 30.1 mm
13:00 17.2° 1015.4 hPa 4.3 m/s 30.1 mm 17.3° 1015.5 hPa 4.6 m/s 16.7° 1014.4 hPa 0.8 m/s 30.1 mm
16:00 18.3° 1015.6 hPa 3.7 m/s 30.5 mm 18.2° 1015.7 hPa 3.9 m/s 18.5° 1014.9 hPa 1.0 m/s 30.5 mm
19:00 19.1° 1015.9 hPa 3.1 m/s 32.0 mm 19.2° 1015.9 hPa 3.2 m/s 18.0° 1015.9 hPa 2.2 m/s 32.0 mm
22:00 16.1° 1017.5 hPa 2.7 m/s 32.7 mm 16.3° 1017.5 hPa 2.9 m/s 14.4° 1018.0 hPa 1.5 m/s 32.7 mm
 05:00     22:01    Daglengte: 17:01 Dinsdag 25 Jun
01:00 13.3° 1019.1 hPa 2.5 m/s 32.7 mm 13.4° 1019.1 hPa 2.5 m/s 12.7° 1019.0 hPa 2.1 m/s 32.7 mm
04:00 12.9° 1019.5 hPa 1.6 m/s 32.7 mm 13.1° 1019.5 hPa 1.6 m/s 11.2° 1019.1 hPa 1.9 m/s 32.7 mm
07:00 12.8° 1020.0 hPa 0.7 m/s 32.7 mm 12.8° 1020.0 hPa 0.7 m/s 13.1° 1020.1 hPa 0.9 m/s 32.7 mm
10:00 16.8° 1020.2 hPa 1.3 m/s 32.7 mm 16.8° 1020.1 hPa 1.3 m/s 17.0° 1021.0 hPa 1.4 m/s 32.7 mm
13:00 20.6° 1020.4 hPa 2.1 m/s 32.8 mm 20.8° 1020.3 hPa 1.9 m/s 18.5° 1021.2 hPa 3.7 m/s 32.8 mm
16:00 20.1° 1020.3 hPa 2.3 m/s 32.9 mm 20.1° 1020.2 hPa 2.1 m/s 19.0° 1021.4 hPa 4.0 m/s 32.9 mm
19:00 19.3° 1020.2 hPa 2.5 m/s 32.9 mm 19.5° 1020.1 hPa 2.4 m/s 16.6° 1021.2 hPa 3.8 m/s 32.9 mm
22:00 16.8° 1020.7 hPa 1.9 m/s 32.9 mm 17.1° 1020.5 hPa 1.9 m/s 13.2° 1022.6 hPa 3.0 m/s 32.9 mm
 05:00     22:01    Daglengte: 17:01 Woensdag 26 Jun
01:00 14.5° 1021.1 hPa 1.3 m/s 32.9 mm 14.7° 1021.0 hPa 1.3 m/s 11.8° 1022.6 hPa 1.7 m/s 32.9 mm
04:00 15.6° 1020.4 hPa 2.3 m/s 32.9 mm 16.0° 1020.2 hPa 2.3 m/s 11.3° 1022.3 hPa 1.9 m/s 32.9 mm
07:00 16.9° 1019.7 hPa 3.2 m/s 32.9 mm 17.3° 1019.4 hPa 3.3 m/s 13.0° 1022.6 hPa 2.6 m/s 32.9 mm
10:00 18.3° 1019.4 hPa 3.7 m/s 32.9 mm 18.5° 1019.1 hPa 3.9 m/s 16.6° 1022.5 hPa 2.3 m/s 32.9 mm
13:00 19.5° 1019.1 hPa 4.3 m/s 33.0 mm 19.6° 1018.8 hPa 4.4 m/s 18.9° 1022.3 hPa 2.8 m/s 33.0 mm
19:00 20.8° 1016.8 hPa 4.1 m/s 33.3 mm 21.0° 1016.5 hPa 4.1 m/s 18.2° 1020.2 hPa 4.2 m/s 33.3 mm
 05:01     22:00    Daglengte: 16:59 Donderdag 27 Jun
01:00 16.5° 1016.3 hPa 1.0 m/s 33.3 mm 16.8° 1016.1 hPa 0.9 m/s 13.2° 1019.1 hPa 2.7 m/s 33.3 mm
07:00 17.3° 1015.3 hPa 1.9 m/s 34.2 mm 17.6° 1015.3 hPa 1.7 m/s 14.3° 1015.4 hPa 4.7 m/s 34.2 mm
13:00 21.1° 1015.0 hPa 2.0 m/s 40.2 mm 21.7° 1015.3 hPa 1.7 m/s 15.0° 1012.1 hPa 5.5 m/s 40.2 mm
19:00 18.9° 1012.3 hPa 1.8 m/s 43.5 mm 19.0° 1013.0 hPa 1.3 m/s 18.3° 1005.2 hPa 7.6 m/s 43.5 mm
 05:01     22:00    Daglengte: 16:59 Vrijdag 28 Jun
01:00 15.3° 1012.9 hPa 2.5 m/s 43.9 mm 15.5° 1013.6 hPa 2.2 m/s 13.6° 1005.4 hPa 5.3 m/s 43.9 mm
07:00 14.8° 1012.4 hPa 3.9 m/s 44.1 mm 14.8° 1013.5 hPa 3.5 m/s 14.4° 1000.8 hPa 8.6 m/s 44.1 mm
13:00 19.8° 1013.1 hPa 3.4 m/s 45.1 mm 20.2° 1013.9 hPa 2.8 m/s 14.8° 1004.4 hPa 10.1 m/s 45.1 mm
19:00 20.1° 1012.1 hPa 2.5 m/s 45.6 mm 20.5° 1012.4 hPa 2.1 m/s 16.1° 1009.0 hPa 7.1 m/s 45.6 mm
 05:02     22:00    Daglengte: 16:58 Zaterdag 29 Jun
01:00 14.5° 1013.2 hPa 2.8 m/s 45.9 mm 14.8° 1013.4 hPa 2.4 m/s 11.5° 1010.7 hPa 6.9 m/s 45.9 mm
07:00 11.9° 1013.7 hPa 1.0 m/s 0.2 mm
13:00 16.1° 1013.2 hPa 1.6 m/s 0.8 mm
19:00 16.4° 1012.2 hPa 0.8 m/s 0.9 mm
 05:03     22:00    Daglengte: 16:57 Zondag 30 Jun
01:00 10.9° 1012.9 hPa 0.5 m/s 0.2 mm
07:00 11.5° 1012.7 hPa 0.9 m/s 0.0 mm
13:00 16.3° 1013.3 hPa 1.0 m/s 0.2 mm
19:00 16.7° 1013.5 hPa 1.5 m/s 0.6 mm
 05:03     21:59    Daglengte: 16:56 Maandag 01 Jul
01:00 10.8° 1014.8 hPa 1.6 m/s 0.7 mm
07:00 11.2° 1015.2 hPa 1.4 m/s 0.0 mm
13:00 16.6° 1015.7 hPa 0.7 m/s 0.3 mm
19:00 16.5° 1015.5 hPa 0.6 m/s 1.1 mm
 05:04     21:59    Daglengte: 16:55 Dinsdag 02 Jul
01:00 10.7° 1016.1 hPa 0.7 m/s 0.3 mm
07:00 11.1° 1015.8 hPa 1.0 m/s 0.4 mm
13:00 16.3° 1016.1 hPa 0.9 m/s 1.3 mm
19:00 16.6° 1015.7 hPa 1.3 m/s 1.3 mm
 05:05     21:58    Daglengte: 16:53 Woensdag 03 Jul
01:00 11.2° 1016.3 hPa 1.2 m/s 0.5 mm
07:00 11.8° 1015.9 hPa 1.3 m/s 0.7 mm
13:00 16.5° 1016.3 hPa 1.4 m/s 0.7 mm
19:00 16.6° 1016.0 hPa 1.6 m/s 1.9 mm
 05:06     21:58    Daglengte: 16:52 Donderdag 04 Jul
01:00 11.1° 1016.9 hPa 2.0 m/s 0.9 mm
07:00 11.4° 1017.0 hPa 2.0 m/s 0.3 mm
FMI Hirlam - 7.5 km EWN WRFDA - 12 km DWD ICON - 7 km GFS - 25 km Basiskaart






























































Updatetijd (Europe/Amsterdam) Resolutie Lengte Stap
FMI Hirlam 13:00, 19:00, 01:00, 07:00 7.5 km 49h 1h
EWN WRFDA 10:15, 16:15, 22:15, 04:15 12 km 73h 1h
DWD ICON 11:45, 17:45, 23:45, 05:45 7 km 75h 1h
GFS 08:45, 14:45, 20:45, 02:45 25 km 237h 3h
30+ mm
25-30 mm
20-25 mm
15-20 mm
10-15 mm
6-10 mm
4-6 mm
2-4 mm
1-2 mm
0.5-1 mm
0.2-0.5 mm
0.1-0.2 mm
30+ mm
25-30 mm
20-25 mm
15-20 mm
10-15 mm
6-10 mm
4-6 mm
2-4 mm
1-2 mm
0.5-1 mm
0.2-0.5 mm
0.1-0.2 mm
Sneeuwval
Natte sneeuw
Hagel
Vorst
30+ mm
25-30 mm
20-25 mm
15-20 mm
10-15 mm
6-10 mm
4-6 mm
2-4 mm
1-2 mm
0.5-1 mm
0.2-0.5 mm
0.1-0.2 mm
Sneeuwval
Natte sneeuw
Hagel
Vorst
Onweer
50 mm
40 mm
30 mm
26 mm
22 mm
18 mm
14 mm
10 mm
9 mm
8 mm
7 mm
6 mm
5 mm
4.5 mm
4 mm
3.5 mm
3 mm
2.5 mm
2 mm
1.5 mm
1 mm
0.8 mm
0.6 mm
0.4 mm
0.2 mm
0.05 mm
35°
30°
25°
20°
15°
10°
-5°
-10°
-15°
-20°
-25°
-30°
-35°
33> m/s
29 m/s
25 m/s
21 m/s
17 m/s
14 m/s
11 m/s
8 m/s
5 m/s
3 m/s
0 m/s
2600 J/kg
2400 J/kg
2200 J/kg
2000 J/kg
1800 J/kg
1600 J/kg
1400 J/kg
1200 J/kg
1000 J/kg
800 J/kg
600 J/kg
400 J/kg
200 J/kg
70 dBZ
65 dBZ
60 dBZ
55 dBZ
50 dBZ
45 dBZ
40 dBZ
35 dBZ
30 dBZ
25 dBZ
20 dBZ
15 dBZ
10 dBZ
5 dBZ
-1 K
-2 K
-3 K
-4 K
-5 K
-6 K
-7 K
-8 K
-9 K
950 m²/s²
900 m²/s²
850 m²/s²
800 m²/s²
750 m²/s²
700 m²/s²
650 m²/s²
600 m²/s²
550 m²/s²
500 m²/s²
450 m²/s²
400 m²/s²
350 m²/s²
300 m²/s²
250 m²/s²
200 m²/s²
150 m²/s²
100 m²/s²
46 m/s
44 m/s
42 m/s
40 m/s
38 m/s
36 m/s
34 m/s
32 m/s
30 m/s
28 m/s
26 m/s
24 m/s
22 m/s
20 m/s
16 m/s
12 m/s
8 m/s
4 m/s
30 m/s
28 m/s
26 m/s
24 m/s
22 m/s
20 m/s
18 m/s
16 m/s
14 m/s
12 m/s
10 m/s
8 m/s
6 m/s
4 m/s
2 m/s
3.0
2.8
2.6
2.4
2.2
2.0
1.8
1.6
1.4
1.2
1.0
0.8
0.6
0.4
0.2
15
14
13
12
11
10
9
8
7
6
5
4
3
2
1
90%
80%
70%
60%
50%
40%
30%
20%
10%
42
40
38
36
34
32
30
28
26
24
22
20
18
16
14
12
90+ cm
80-90 cm
70-80 cm
60-70 cm
50-60 cm
40-50 cm
30-40 cm
20-30 cm
10-20 cm
1-10 cm
Sneeuwval
Natte sneeuw
Regen
>120 mm
115 mm
110 mm
105 mm
100 mm
95 mm
90 mm
85 mm
80 mm
75 mm
70 mm
65 mm
60 mm
55 mm
50 mm
45 mm
45 mm
40 mm
35 mm
30 mm
25 mm
20 mm
15 mm
10 mm
5 mm
0.1 mm
960 hPa
880 hPa
800 hPa
720 hPa
640 hPa
560 hPa
584 gpdm
568 gpdm
552 gpdm
536 gpdm
520 gpdm
504 gpdm
488 gpdm
Extreem zwaar Noodweer Kans op onweer
15% 15% 5% 50% 15%

Dag




Kaart






35°
30°
25°